Location: Kalberh�ni
(46.4610°N, 7.2453°E)
Time: 05:25:23
(UTC+00:00)

Cosmos 1802 Rocket - Pass Details

Date: 01 November 2021
Orbit: 955 x 1010 km, 82.9° (Epoch: 05 December)

Event Time Altitude Azimuth Distance (km) Brightness Sun altitude
Rises 18:38:10 0° 195° (SSW) 3,619 7.1 -24.9°
Reaches altitude 10° 18:40:40 10° 197° (SSW) 2,679 6.4 -25.3°
Maximum altitude 18:46:45 68° 281° (W) 1,030 4.2 -26.4°
Drops below altitude 10° 18:52:57 10° 4° (N) 2,718 6.4 -27.4°
Sets 18:55:30 0° 7° (N) 3,676 7.0 -27.9°
